[ hide orbit diagram ]
For accurate long-term ephemerides, please instead use our Horizons system.This orbit viewer was implemented using two-body methods, and hence should not be used for determining accurate long-term trajectories (over several years or decades) or planetary encounter circumstances.
Orbital Elements at Epoch 2459000.5 (2020-May-31.0) TDB
Reference: JPL 9 (heliocentric ecliptic J2000)
Element | Value | Uncertainty (1-sigma) | Units |
e | .2087409695178426 | 5.4156e-08 | |
a | 2.402777235708428 | 1.3988e-08 | au |
q | 1.901219185991249 | 1.3524e-07 | au |
i | 6.201458559848439 | 4.6422e-06 | deg |
node | 92.72832184002269 | 6.2553e-05 | deg |
peri | 337.8293780049734 | 6.6706e-05 | deg |
M | 30.79697833328481 | 2.037e-05 | deg |
tp | 2458884.121086950670 (2020-Feb-04.62108695) | 7.6878e-05 | TDB |
period | 1360.406473789599 3.72 | 1.188e-05 3.253e-08 | d yr |
n | .2646267912833219 | 2.3109e-09 | deg/d |
Q | 2.904335285425607 | 1.6908e-08 | au |
|
| | Orbit Determination Parameters
Additional Information
|
[ show covariance matrix ]
Physical Parameter Table
Parameter |
Symbol |
Value |
Units |
Sigma |
Reference |
Notes |
absolute magnitude |
H |
17.3 |
|
n/a |
MPO345969 |
|
|
352835 (2008 VR13) Discovered 2008-Nov-06 by Ondrejov at Ondrejov |
Reference: 20130127/Numbers.arc | Last Updated: 2013-01-31 |
|
|